GW5443 Weather Reports


time (UTC)temp
F
wind
direction
speed
knots
gust
knots
rain 1hr
in
rain 24hr
in
rain mn
in
humidity
%
barometer
mb
20260505114200 60 196 1.7 2.6 0.00 0.00 0.00 83 1018.0
20260505113701 60 211 3.5 4.3 0.00 0.00 0.00 84 1018.0
20260505113202 59 176 1.7 2.6 0.00 0.00 0.00 85 1018.0
20260505112702 58 194 1.7 2.6 0.00 0.00 0.00 87 1018.0
20260505112202 57 194 2.6 3.5 0.00 0.00 0.00 90 1018.0
20260505111701 56 164 0.0 1.7 0.00 0.00 0.00 94 1018.0
20260505111203 55 187 1.7 3.5 0.00 0.00 0.00 96 1018.0
20260505110703 54 176 1.7 3.5 0.00 0.00 0.00 97 1018.0
20260505110204 53 171 0.9 2.6 0.00 0.00 0.00 98 1018.0
20260505102202 50 0 0.0 0.0 0.00 0.00 0.00 98 1018.0
20260505101701 50 0 0.0 0.0 0.00 0.00 0.00 98 1017.0
20260505101202 50 0 0.0 0.0 0.00 0.00 0.00 97 1017.0
20260505100702 51 0 0.0 0.0 0.00 0.00 0.00 97 1017.0
20260505100202 51 0 0.0 0.0 0.00 0.00 0.00 97 1017.0
20260505095702 51 0 0.0 0.0 0.00 0.00 0.00 97 1017.0
20260505095201 51 0 0.0 0.0 0.00 0.00 0.00 97 1017.0
20260505094701 51 0 0.0 0.0 0.00 0.00 0.00 97 1017.0
20260505094201 51 0 0.0 0.0 0.00 0.00 0.00 97 1017.0
20260505093659 51 0 0.0 0.0 0.00 0.00 0.00 97 1017.0
20260505093201 51 0 0.0 0.0 0.00 0.00 0.00 97 1017.0
20260505092701 51 0 0.0 0.0 0.00 0.00 0.00 97 1017.0
20260505092201 51 0 0.0 0.0 0.00 0.00 0.00 96 1017.0
20260505091701 51 0 0.0 0.0 0.00 0.00 0.00 96 1017.0
20260505091201 51 0 0.0 0.0 0.00 0.00 0.00 96 1017.0
20260505090703 52 0 0.0 0.0 0.00 0.00 0.00 96 1017.0
20260505090159 52 0 0.0 0.0 0.00 0.00 0.00 96 1017.0
20260505085701 52 0 0.0 0.0 0.00 0.00 0.00 96 1017.0
20260505085201 52 0 0.0 0.0 0.00 0.00 0.00 95 1017.0
20260505084659 52 0 0.0 0.0 0.00 0.00 0.00 95 1017.0
20260505084204 52 0 0.0 0.0 0.00 0.00 0.00 95 1017.0
20260505083700 52 0 0.0 0.0 0.00 0.00 0.00 95 1017.0
20260505083201 53 0 0.0 0.0 0.00 0.00 0.00 94 1017.0
20260505082701 53 0 0.0 0.0 0.00 0.00 0.00 94 1017.0
20260505082202 53 0 0.0 0.0 0.00 0.00 0.00 94 1017.0
20260505081701 53 0 0.0 0.0 0.00 0.00 0.00 94 1017.0
20260505081201 53 0 0.0 0.0 0.00 0.00 0.00 94 1017.0
20260505080701 53 0 0.0 0.0 0.00 0.00 0.00 93 1017.0
20260505080201 54 0 0.0 0.0 0.00 0.00 0.00 93 1017.0
20260505075701 54 0 0.0 0.0 0.00 0.00 0.00 93 1017.0
20260505075201 54 0 0.0 0.0 0.00 0.00 0.00 92 1017.0
20260505074705 54 191 0.0 0.9 0.00 0.00 0.00 93 1017.0
20260505074201 54 0 0.0 0.0 0.00 0.00 0.00 92 1017.0
20260505073702 55 221 0.0 0.9 0.00 0.00 0.00 92 1016.0
20260505073201 55 0 0.0 0.0 0.00 0.00 0.00 92 1016.0
20260505072701 54 0 0.0 0.0 0.00 0.00 0.00 92 1016.0
20260505072202 54 0 0.0 0.0 0.00 0.00 0.00 93 1016.0
20260505071701 54 227 0.0 0.9 0.00 0.00 0.00 93 1016.0
20260505071200 54 0 0.0 0.0 0.00 0.00 0.00 92 1016.0
20260505070701 54 207 0.0 0.9 0.00 0.00 0.00 92 1016.0
20260505070200 54 0 0.0 0.0 0.00 0.00 0.00 92 1016.0
20260505065659 54 0 0.0 0.0 0.00 0.00 0.00 91 1016.0
20260505065200 54 0 0.0 0.0 0.00 0.00 0.00 91 1016.0
20260505064701 54 0 0.0 0.0 0.00 0.00 0.00 91 1016.0
20260505064159 54 206 0.0 1.7 0.00 0.00 0.00 91 1016.0
20260505063701 54 287 0.0 0.9 0.00 0.00 0.00 90 1016.0
20260505063200 55 0 0.0 0.0 0.00 0.00 0.00 89 1016.0
20260505062701 55 0 0.0 0.0 0.00 0.00 0.00 89 1016.0
20260505062159 55 0 0.0 0.0 0.00 0.00 0.00 88 1016.0
20260505061701 55 0 0.0 0.0 0.00 0.00 0.00 88 1017.0
20260505061201 56 0 0.0 0.0 0.00 0.00 0.00 87 1017.0
20260505060704 56 0 0.0 0.0 0.00 0.00 0.00 87 1017.0
20260505060200 56 0 0.0 0.0 0.00 0.00 0.00 87 1017.0
20260505055700 55 210 0.9 1.7 0.00 0.00 0.00 88 1017.0
20260505055159 55 201 0.9 2.6 0.00 0.00 0.00 89 1017.0
20260505054700 55 0 0.0 0.0 0.00 0.00 0.00 89 1017.0
20260505054200 55 0 0.0 0.0 0.00 0.00 0.00 89 1017.0
20260505053701 55 0 0.0 0.0 0.00 0.00 0.00 89 1017.0
20260505053159 55 0 0.0 0.0 0.00 0.00 0.00 89 1017.0
20260505052659 55 0 0.0 0.0 0.00 0.00 0.00 89 1017.0
20260505052200 55 0 0.0 0.0 0.00 0.00 0.00 89 1017.0
20260505051700 55 0 0.0 0.0 0.00 0.00 0.00 89 1017.0
20260505051159 55 0 0.0 0.0 0.00 0.00 0.00 89 1017.0
20260505050659 55 0 0.0 0.0 0.00 0.00 0.00 89 1017.0
20260505050201 55 0 0.0 0.0 0.00 0.00 0.00 88 1017.0
20260505041700 57 0 0.0 0.0 0.00 0.00 0.00 83 1017.0
20260505041159 58 0 0.0 0.0 0.00 0.00 0.00 82 1017.0
20260505040659 58 0 0.0 0.0 0.00 0.00 0.00 81 1017.0
20260505040159 59 0 0.0 0.0 0.00 0.00 0.00 80 1017.0
20260505035659 59 0 0.0 0.0 0.00 0.00 0.00 79 1017.0
20260505035159 60 213 0.0 0.9 0.00 0.00 0.00 78 1017.0
20260505034659 60 0 0.0 0.0 0.00 0.00 0.00 77 1017.0
20260505034201 61 0 0.0 0.0 0.00 0.00 0.00 76 1017.0
20260505033659 61 0 0.0 0.0 0.00 0.00 0.00 76 1017.0
20260505033201 61 197 0.0 1.7 0.00 0.00 0.00 75 1017.0
20260505032659 61 194 0.0 0.0 0.00 0.00 0.00 74 1017.0
20260505032200 62 195 0.9 1.7 0.00 0.00 0.00 74 1017.0
20260505031700 62 198 1.7 2.6 0.00 0.00 0.00 74 1017.0
20260505031159 62 207 1.7 2.6 0.00 0.00 0.00 73 1017.0
20260505030700 62 185 0.9 1.7 0.00 0.00 0.00 73 1017.0
20260505030200 62 191 1.7 2.6 0.00 0.00 0.00 72 1017.0
20260505025701 63 199 1.7 3.5 0.00 0.00 0.00 72 1017.0
20260505025159 63 195 1.7 3.5 0.00 0.00 0.00 71 1017.0
20260505024659 63 213 4.3 6.1 0.00 0.00 0.00 71 1017.0
20260505024200 63 213 2.6 4.3 0.00 0.00 0.00 71 1017.0
20260505023700 63 211 1.7 2.6 0.00 0.00 0.00 70 1017.0
20260505023159 64 208 1.7 5.2 0.00 0.00 0.00 70 1017.0
20260505022659 64 192 3.5 4.3 0.00 0.00 0.00 69 1017.0
20260505022159 64 196 4.3 7.8 0.00 0.00 0.00 69 1017.0
20260505021700 64 206 1.7 4.3 0.00 0.00 0.00 69 1017.0
20260505021201 64 189 4.3 7.0 0.00 0.00 0.00 68 1017.0
20260505020700 64 200 5.2 7.0 0.00 0.00 0.00 68 1017.0
20260505020203 64 185 3.5 6.1 0.00 0.00 0.00 68 1017.0
20260505015659 64 188 4.3 6.1 0.00 0.00 0.00 67 1017.0
20260505015159 64 186 3.5 5.2 0.00 0.00 0.00 67 1017.0
20260505014659 65 155 2.6 3.5 0.00 0.00 0.00 67 1017.0
20260505014200 65 188 3.5 4.3 0.00 0.00 0.00 67 1017.0
20260505013659 65 170 6.1 8.7 0.00 0.00 0.00 67 1017.0
20260505013159 65 205 3.5 6.1 0.00 0.00 0.00 67 1017.0
20260505012659 65 191 3.5 5.2 0.00 0.00 0.00 67 1017.0
20260505012159 65 183 5.2 7.8 0.00 0.00 0.00 66 1017.0
20260505011701 65 204 3.5 5.2 0.00 0.00 0.00 66 1016.0
20260505011200 65 177 4.3 7.0 0.00 0.00 0.00 65 1016.0
20260505010659 65 184 5.2 7.0 0.00 0.00 0.00 65 1016.0
20260505010200 65 182 4.3 6.1 0.00 0.00 0.00 65 1016.0
20260505005659 66 192 6.1 8.7 0.00 0.00 0.00 64 1016.0
20260505005159 66 202 5.2 9.6 0.00 0.00 0.00 64 1016.0
20260505004700 66 175 5.2 7.8 0.00 0.00 0.00 64 1016.0
20260505004159 66 186 6.1 12.2 0.00 0.00 0.00 64 1016.0
20260505003659 66 190 5.2 7.8 0.00 0.00 0.00 63 1016.0
20260505003201 66 200 4.3 7.0 0.00 0.00 0.00 63 1016.0
20260505002700 66 194 3.5 6.1 0.00 0.00 0.00 62 1016.0
20260505002159 66 186 4.3 6.1 0.00 0.00 0.00 61 1016.0
20260505001659 66 188 1.7 3.5 0.00 0.00 0.00 61 1016.0
20260505001159 67 174 2.6 5.2 0.00 0.00 0.00 61 1016.0
20260505000659 67 205 2.6 4.3 0.00 0.00 0.00 60 1016.0
20260505000159 67 183 2.6 7.0 0.00 0.00 0.00 60 1016.0
20260504235659 67 176 5.2 7.0 0.00 0.00 0.00 60 1015.0
20260504235159 67 193 3.5 6.1 0.00 0.00 0.00 60 1015.0
20260504234659 68 207 2.6 5.2 0.00 0.00 0.00 59 1015.0
20260504234159 68 191 3.5 7.8 0.00 0.00 0.00 59 1015.0
20260504233700 68 189 4.3 7.0 0.00 0.00 0.00 58 1015.0
20260504233201 69 192 7.0 9.6 0.00 0.00 0.00 58 1015.0
20260504232659 69 179 6.1 9.6 0.00 0.00 0.00 57 1015.0
20260504232159 69 185 7.0 11.3 0.00 0.00 0.00 57 1015.0
20260504231702 69 190 5.2 9.6 0.00 0.00 0.00 57 1015.0
20260504231201 69 175 7.0 9.6 0.00 0.00 0.00 57 1015.0
20260504230659 70 203 6.1 7.8 0.00 0.00 0.00 57 1015.0
20260504230200 70 195 6.1 8.7 0.00 0.00 0.00 57 1015.0
20260504225659 71 171 5.2 7.0 0.00 0.00 0.00 57 1015.0
20260504225201 71 184 6.1 8.7 0.00 0.00 0.00 57 1015.0
20260504224701 71 182 3.5 6.1 0.00 0.00 0.00 57 1015.0
20260504224159 72 190 6.1 9.6 0.00 0.00 0.00 56 1015.0
20260504223659 72 186 5.2 7.8 0.00 0.00 0.00 56 1015.0
20260504223159 72 188 6.1 8.7 0.00 0.00 0.00 56 1015.0
20260504222705 73 198 6.1 8.7 0.00 0.00 0.00 55 1015.0
20260504222201 73 194 5.2 7.8 0.00 0.00 0.00 55 1015.0
20260504221701 73 203 6.1 8.7 0.00 0.00 0.00 56 1015.0
20260504221201 73 182 5.2 7.8 0.00 0.00 0.00 56 1015.0
20260504220659 73 183 6.1 11.3 0.00 0.00 0.00 55 1015.0
20260504220201 73 201 6.1 10.4 0.00 0.00 0.00 56 1015.0
20260504215700 73 170 5.2 9.6 0.00 0.00 0.00 56 1015.0
20260504215200 74 186 6.1 12.2 0.00 0.00 0.00 55 1015.0
20260504214701 74 175 4.3 7.8 0.00 0.00 0.00 56 1015.0
20260504214159 74 192 7.0 11.3 0.00 0.00 0.00 55 1015.0
20260504213701 74 188 4.3 7.0 0.00 0.00 0.00 56 1015.0
20260504213200 74 172 5.2 9.6 0.00 0.00 0.00 56 1015.0
20260504212701 74 189 6.1 7.8 0.00 0.00 0.00 57 1015.0
20260504212201 74 184 8.7 12.2 0.00 0.00 0.00 56 1015.0
20260504211710 75 195 7.0 11.3 0.00 0.00 0.00 55 1015.0
20260504211201 75 174 3.5 6.1 0.00 0.00 0.00 56 1015.0
20260504210701 75 185 6.1 14.8 0.00 0.00 0.00 55 1015.0
20260504210202 76 190 7.0 9.6 0.00 0.00 0.00 55 1015.0
20260504205659 76 183 5.2 8.7 0.00 0.00 0.00 55 1015.0
20260504205201 76 176 3.5 6.1 0.00 0.00 0.00 56 1015.0
20260504204701 76 196 5.2 7.0 0.00 0.00 0.00 55 1015.0
20260504204200 76 196 7.0 10.4 0.00 0.00 0.00 54 1015.0
20260504203659 76 183 3.5 6.1 0.00 0.00 0.00 56 1015.0
20260504203201 76 185 8.7 10.4 0.00 0.00 0.00 53 1015.0
20260504202701 76 180 6.1 8.7 0.00 0.00 0.00 54 1015.0
20260504202201 76 201 3.5 7.0 0.00 0.00 0.00 54 1015.0
20260504201703 76 198 7.0 9.6 0.00 0.00 0.00 54 1015.0
20260504201202 76 207 7.8 9.6 0.00 0.00 0.00 52 1015.0
20260504200659 77 192 3.5 5.2 0.00 0.00 0.00 45 1015.0
20260504200201 78 164 4.3 5.2 0.00 0.00 0.00 42 1015.0
20260504195659 79 193 7.0 9.6 0.00 0.00 0.00 41 1015.0
20260504195200 79 202 5.2 7.8 0.00 0.00 0.00 42 1015.0
20260504194701 78 188 6.1 9.6 0.00 0.00 0.00 42 1015.0
20260504194201 78 178 4.3 8.7 0.00 0.00 0.00 42 1015.0
20260504193702 78 168 6.1 9.6 0.00 0.00 0.00 41 1015.0
20260504193200 79 186 7.0 12.2 0.00 0.00 0.00 41 1015.0
20260504192701 79 229 4.3 7.0 0.00 0.00 0.00 41 1015.0
20260504192201 78 189 2.6 4.3 0.00 0.00 0.00 45 1015.0
20260504191701 78 159 5.2 6.1 0.00 0.00 0.00 43 1015.0
20260504191159 78 192 2.6 5.2 0.00 0.00 0.00 43 1016.0
20260504190700 78 167 5.2 9.6 0.00 0.00 0.00 41 1016.0
20260504190200 78 247 3.5 7.8 0.00 0.00 0.00 40 1016.0
20260504185701 77 220 5.2 7.0 0.00 0.00 0.00 43 1016.0
20260504185200 77 193 4.3 7.0 0.00 0.00 0.00 41 1016.0
20260504184707 78 197 3.5 5.2 0.00 0.00 0.00 43 1016.0
20260504184202 78 210 5.2 6.1 0.00 0.00 0.00 43 1016.0
20260504183700 77 216 4.3 7.8 0.00 0.00 0.00 42 1016.0
20260504183201 77 196 5.2 7.0 0.00 0.00 0.00 43 1016.0
20260504182702 77 208 3.5 5.2 0.00 0.00 0.00 43 1016.0
20260504182200 77 167 8.7 13.9 0.00 0.00 0.00 43 1016.0
20260504181700 77 221 6.1 7.8 0.00 0.00 0.00 44 1016.0
20260504181201 77 178 5.2 7.8 0.00 0.00 0.00 45 1016.0
20260504180701 76 186 2.6 4.3 0.00 0.00 0.00 45 1016.0
20260504180202 76 183 5.2 9.6 0.00 0.00 0.00 44 1016.0
20260504175701 76 179 6.1 10.4 0.00 0.00 0.00 44 1016.0
20260504175204 76 175 4.3 7.0 0.00 0.00 0.00 44 1017.0
20260504174702 76 208 3.5 5.2 0.00 0.00 0.00 46 1016.0
20260504174200 76 187 7.8 11.3 0.00 0.00 0.00 43 1017.0
20260504173701 76 179 3.5 6.1 0.00 0.00 0.00 44 1017.0
20260504173159 76 197 5.2 8.7 0.00 0.00 0.00 43 1017.0
20260504172703 76 206 5.2 7.8 0.00 0.00 0.00 44 1017.0
20260504172202 76 226 3.5 7.0 0.00 0.00 0.00 44 1017.0
20260504171704 75 263 5.2 7.8 0.00 0.00 0.00 46 1017.0
20260504171159 75 184 4.3 8.7 0.00 0.00 0.00 44 1017.0
20260504170700 75 170 7.0 9.6 0.00 0.00 0.00 44 1017.0
20260504170200 76 179 5.2 7.8 0.00 0.00 0.00 44 1017.0
20260504160216 73 220 5.2 7.8 0.00 0.00 0.00 52 1018.0
20260504150702 71 178 4.3 7.0 0.00 0.00 0.00 55 1018.0
20260504150202 71 213 5.2 7.8 0.00 0.00 0.00 56 1018.0
20260504141201 69 196 5.2 8.7 0.00 0.00 0.00 60 1018.0
20260504140703 69 172 2.6 5.2 0.00 0.00 0.00 62 1018.0
20260504140200 68 193 1.7 3.5 0.00 0.00 0.00 65 1018.0
20260504130700 62 173 4.3 5.2 0.00 0.00 0.00 73 1018.0
20260504130202 62 178 3.5 6.1 0.00 0.00 0.00 75 1019.0
20260504120201 54 193 2.6 3.5 0.00 0.00 0.00 89 1019.0